Regional Weather Roundup
Issued by NWS Charleston, WV

Home | Current Version | Previous Version | Graphics & Text | Print | Product List | Glossary On
Versions: 1 2 3 4 5 6 7 8 9 10 11 12 13 14 15 16 17 18 19 20 21 22 23 24 25 26 27 28 29 30 31 32 33 34 35 36 37 38 39 40 41 42 43 44 45 46 47 48 49 50
000
ASUS41 KRLX 130910
RWRRLX
West Virginia Regional Weather Roundup
National Weather Service Charleston WV
400 AM EST WED DEC 13 2017

Note: "fair" indicates few or no clouds below 12,000 feet with no
significant weather and/or obstructions to visibility.

WVZ003-131000-
Northern Panhandle of West Virginia

CITY           SKY/WX    TMP DP  RH WIND       PRES   REMARKS
WHEELING       MOCLDY    14   0  53 W12G20    29.84R WCI   0
$$

WVZ009-131000-
Northwest West Virginia

CITY           SKY/WX    TMP DP  RH WIND       PRES   REMARKS
PARKERSBURG    CLOUDY    19  14  81 W8        29.94S WCI   9
$$

WVZ006-131000-
Western West Virginia

CITY           SKY/WX    TMP DP  RH WIND       PRES   REMARKS
HUNTINGTON     CLEAR     19   7  59 SW6       29.98R
$$

WVZ015-131000-
West Central West Virginia

CITY           SKY/WX    TMP DP  RH WIND       PRES   REMARKS
CHARLESTON     PTCLDY    20   6  55 W8        29.94S
$$

WVZ022-031-131000-
North Central West Virginia

CITY           SKY/WX    TMP DP  RH WIND       PRES   REMARKS
CLARKSBURG     CLOUDY    19   8  62 W8        29.86S WCI   9
MORGANTOWN     CLOUDY    17   0  47 NW9       29.84S WCI   6
$$

WVZ025-035-042-045-131000-
Southern West Virginia

CITY           SKY/WX    TMP DP  RH WIND       PRES   REMARKS
BECKLEY        CLOUDY    13   4  67 W13       29.82R WCI  -2
LOGAN            N/A     18   7  62 CALM      29.92S
BLUEFIELD      PTCLDY    13   3  64 NW20G32   29.79R WCI  -5
LEWISBURG      FLURRIES  16   9  72 NW15G21   29.77S WCI   2
$$

WVZ047-131000-
Northern Mountains of West Virginia

CITY           SKY/WX    TMP DP  RH WIND       PRES   REMARKS
ELKINS         LGT SNOW  15   7  70 NW12G18   29.78S WCI   2
$$

WVZ052-131000-
Eastern Panhandle of West Virginia

CITY           SKY/WX    TMP DP  RH WIND       PRES   REMARKS
MARTINSBURG    PTCLDY    19   0  43 W14G26    29.76S WCI   6
PETERSBURG     CLOUDY    19   5  53 NW14G26   29.81R WCI   6
$$



USA.gov is the U.S. government's official web portal to all federal, state and local government web resources and services.